Location: Bremen
(53.0793°N, 8.8017°E)
Time: 08:17:21
(UTC+01:00)

Explorer 7 - Pass Details

Date: 29 November 2021
Orbit: 483 x 674 km, 50.3° (Epoch: 17 January)

Event Time Altitude Azimuth Distance (km) Brightness Sun altitude
Rises 07:33:38 0° 204° (SSW) 2,747 10.5 -5.8°
Reaches altitude 10° 07:36:37 10° 183° (S) 1,812 9.8 -5.4°
Maximum altitude 07:39:09 16° 144° (SE) 1,436 10.1 -5.1°
Drops below altitude 10° 07:41:38 10° 105° (ESE) 1,752 11.0 -4.7°
Sets 07:44:26 0° 84° (E) 2,610 11.2 -4.4°
